• MPC Preparation (Info)

  • MPEC 2012-V30 : 2012 VK6

    The following Minor Planet Electronic Circular may be linked-to from your own Web pages, but must not otherwise be redistributed electronically.

    A form allowing access to any MPEC is at the bottom of this page.


    Read MPEC 2012-V29 Read MPEC 2012-V31


    M.P.E.C. 2012-V30                                Issued 2012 Nov. 6, 18:17 UT
    
         The Minor Planet Electronic Circulars contain information on unusual
             minor planets and routine data on comets.  They are published
       on behalf of Commission 20 of the International Astronomical Union by the
              Minor Planet Center, Smithsonian Astrophysical Observatory,
                              Cambridge, MA 02138, U.S.A.
    
                 Prepared using the Tamkin Foundation Computer Network
    
                                  MPC@CFA.HARVARD.EDU
                URL https://www.minorplanetcenter.net/    ISSN 1523-6714
    
                                       2012 VK6
    
    Observations:
         K12V06K* C2012 11 04.22065520 51 44.644-14 33 01.54         21.9 wLEV030F51
         K12V06K  C2012 11 04.22617820 51 46.519-14 32 53.99         22.4 wLEV030F51
         K12V06K  C2012 11 04.23172020 51 48.367-14 32 46.54         21.9 wLEV030F51
         K12V06K  C2012 11 04.23723020 51 50.220-14 32 39.07         21.5 wLEV030F51
         K12V06K KC2012 11 05.01815820 56 14.00 -14 15 01.1          21.8 VuEV030H21
         K12V06K KC2012 11 05.03383720 56 19.17 -14 14 39.5          22.1 VuEV030H21
         K12V06K KC2012 11 05.04977220 56 24.44 -14 14 16.9                uEV030H21
         K12V06K KC2012 11 06.16456 21 02 30.45 -13 49 05.6          21.3 RoEV030291
         K12V06K KC2012 11 06.16977 21 02 32.12 -13 48 58.4          21.0 RoEV030291
         K12V06K KC2012 11 06.17497 21 02 33.78 -13 48 51.5          21.2 RoEV030291
    
    Observer details:
    291 LPL/Spacewatch II.  Observer T. H. Bressi.  1.8-m f/2.7 reflector + CCD.
    F51 Pan-STARRS 1, Haleakala.  Observers N. Primak, A. Schultz, S. Watters,
        T. Goggia.  Measurer PS1 Science Consortium.  1.8-m Ritchey-Chretien
        + CCD.
    H21 Astronomical Research Observatory, Westfield.  Observer R. Holmes.
        Measurers L. Buzzi, S. Foglia, T. Vorobjov, T. Linder.  0.81-m f/4.0
        astrograph + CCD.
    
    Orbital elements:
    2012 VK6                                            PHA, Earth MOID = 0.0264 AU
    Epoch 2012 Sept. 30.0 TT = JDT 2456200.5                MPC
    M  11.84778              (2000.0)            P               Q
    n   0.37437171     Peri.  333.51351     -0.04871990     +0.99839487
    a   1.9066341      Node   293.68229     -0.91070712     -0.05627764
    e   0.6553324      Incl.    1.80717     -0.41016936     +0.00636505
    P   2.63           H   20.1           G   0.15           U   9
    Residuals in seconds of arc
    121104 F51  0.1-  0.1+    121105 H21  0.1-  0.5-    121106 291  0.0   0.1+
    121104 F51  0.2+  0.1+    121105 H21  0.1-  0.2-    121106 291  0.0   0.1-
    121104 F51  0.1-  0.0     121105 H21  0.1+  0.7+
    121104 F51  0.1-  0.1-    121106 291  0.0   0.0
    
    Ephemeris:
    2012 VK6                 a,e,i = 1.91, 0.66, 2                   q = 0.6572
    Date    TT    R. A. (2000) Decl.     Delta      r     Elong.  Phase     V
    2012 10 07    17 09 43.9 -20 49 43   0.5660  0.9105    64.3    81.6    21.5
    ...
    2012 10 22    19 21 28.7 -19 12 22   0.5928  1.0702    80.4    66.5    21.5
    ...
    2012 10 30    20 19 46.8 -16 30 33   0.6553  1.1565    86.6    59.0    21.6
    ...
    2012 11 05    20 56 07.8 -14 15 17   0.7189  1.2208    89.6    54.3    21.8
    2012 11 06    21 01 37.3 -13 52 41   0.7307  1.2315    90.0    53.6    21.8
    2012 11 07    21 06 57.8 -13 30 11   0.7427  1.2421    90.4    52.9    21.9
    ...
    2012 11 13    21 36 08.7 -11 18 39   0.8209  1.3053    91.8    49.3    22.1
    ...
    2012 11 21    22 08 44.0 -08 36 02   0.9379  1.3879    92.2    45.3    22.4
    ...
    2012 12 06    22 56 39.2 -04 12 29   1.1848  1.5371    89.7    39.9    23.0
    
    A. U. Tomatic                (C) Copyright 2012 MPC           M.P.E.C. 2012-V30
    

    Read MPEC 2012-V29 Read MPEC 2012-V31


    MPEC number:

    Enter an MPEC number in one of the following forms:

    • 1997-B01 (the full form)
    • J97B01 (the packed version of the full form)
    • B01 (the abbreviated form)